"Pseudo-MPEC" for MLO0379

Created 2023 Nov 23 0:22:08 UT using Find_Orb

Click here for an explanation of pseudo-MPECs

 
 Astrometry: 
     MLO0379*KC2023 11 02bnL=m8o?ALH2!:X6nFjD`HE$AstrometryLredacted;[clickuuU76
     MLO0379 KC2023 11 02)#here7R)Tyu#?PgXBLtY@@Id[K0for9RE4MOkd[trZovye@DBcpU76
     MLO0379 KC2023 11 02pvkjyU%%explanation?We,^nwOqN/@J/,*)*lTPBEAB!FGt?X9KU76

Station data:
(U76) Maury Lewin Observatory, Glendora  (N34.142211 W117.872100)
   US/California.  Observer P. Lewin. 0.36-m reflector + CCD.

Orbital elements:  MLO0379
   Perihelion 2023 Dec 22.48478 +/- 34.4 TT = 11:38:04 (JD 2460300.98478)
Epoch 2023 Nov  2.0 TT = JDT 2460250.5   Earth MOID: 0.0574      AutoNEOCP
M 341.44446254 +/- 15               (J2000 ecliptic)
n   0.36754716 +/- 0.287            Peri.  192.71701 +/- 90
a   1.93016305 +/- 1                Node   259.17533 +/- 54
e   0.4636425 +/- 0.26              Incl.   16.69484 +/- 7
P   2.68/979.45d           H 22.05  G  0.15   U 11.9  SR
q 1.03525724 +/- 0.207    Q 2.82506885 +/- 52.2
From 3 observations 2023 Nov. 2 (39.7 min); mean residual 0".10
Residuals in arcseconds: 
231102 U76  .07-  .10+    231102 U76  .11+  .16-    231102 U76  .04-  .06+    

Ephemerides (geocentric):
Date (UTC) HH   RA             Dec           delta  r     elong  mag " sig PA
---- --------  ------------   ------------  ------ ------ -----  --- --------
2023 11 23 00  02 43 42.628   +66 27 36.06  .14201 1.0885 132.4 19.6  56d  26
2023 11 23 01  02 44 03.752   +66 26 39.85  .14176 1.0884 132.5 19.6  56d  26
2023 11 23 02  02 44 24.932   +66 25 43.13  .14151 1.0882 132.5 19.6  56d  26
2023 11 23 03  02 44 46.169   +66 24 45.90  .14127 1.0881 132.5 19.6  56d  26
2023 11 23 04  02 45 07.464   +66 23 48.16  .14102 1.0879 132.5 19.6  56d  26
2023 11 23 05  02 45 28.815   +66 22 49.90  .14077 1.0878 132.6 19.6  56d  26
2023 11 23 06  02 45 50.224   +66 21 51.12  .14052 1.0876 132.6 19.6  56d  26
2023 11 23 07  02 46 11.690   +66 20 51.82  .14027 1.0875 132.6 19.6  56d  26
2023 11 23 08  02 46 33.212   +66 19 52.00  .14002 1.0873 132.7 19.6  56d  26
2023 11 23 09  02 46 54.792   +66 18 51.64  .13977 1.0872 132.7 19.6  56d  26
2023 11 23 10  02 47 16.428   +66 17 50.75  .13952 1.0871 132.7 19.6  56d  26
2023 11 23 11  02 47 38.122   +66 16 49.33  .13928 1.0869 132.8 19.6  56d  26
2023 11 23 12  02 47 59.872   +66 15 47.36  .13903 1.0868 132.8 19.6  56d  26
2023 11 23 13  02 48 21.679   +66 14 44.86  .13878 1.0866 132.8 19.6  56d  26
2023 11 23 14  02 48 43.543   +66 13 41.80  .13853 1.0865 132.9 19.6  56d  26
2023 11 23 15  02 49 05.463   +66 12 38.20  .13828 1.0864 132.9 19.6  57d  26
2023 11 23 16  02 49 27.441   +66 11 34.04  .13804 1.0862 132.9 19.6  57d  26
2023 11 23 17  02 49 49.475   +66 10 29.33  .13779 1.0861 133.0 19.6  57d  26
2023 11 23 18  02 50 11.566   +66 09 24.06  .13754 1.0859 133.0 19.6  57d  26
2023 11 23 19  02 50 33.713   +66 08 18.22  .13729 1.0858 133.0 19.5  57d  26
2023 11 23 20  02 50 55.917   +66 07 11.82  .13705 1.0856 133.1 19.5  57d  26
2023 11 23 21  02 51 18.178   +66 06 04.84  .13680 1.0855 133.1 19.5  57d  26
2023 11 23 22  02 51 40.495   +66 04 57.29  .13655 1.0854 133.1 19.5  57d  26
2023 11 23 23  02 52 02.868   +66 03 49.16  .13630 1.0852 133.1 19.5  57d  26
2023 11 24 00  02 52 25.298   +66 02 40.46  .13606 1.0851 133.2 19.5  57d  26
2023 11 24 01  02 52 47.784   +66 01 31.16  .13581 1.0849 133.2 19.5  57d  26
2023 11 24 02  02 53 10.326   +66 00 21.28  .13556 1.0848 133.3 19.5  57d  26
2023 11 24 03  02 53 32.925   +65 59 10.80  .13532 1.0847 133.3 19.5  57d  26
2023 11 24 04  02 53 55.579   +65 57 59.73  .13507 1.0845 133.3 19.5  57d  26
2023 11 24 05  02 54 18.290   +65 56 48.06  .13482 1.0844 133.4 19.5  57d  26
2023 11 24 06  02 54 41.057   +65 55 35.78  .13458 1.0842 133.4 19.5  57d  26
2023 11 24 07  02 55 03.879   +65 54 22.90  .13433 1.0841 133.4 19.5  57d  26
2023 11 24 08  02 55 26.758   +65 53 09.40  .13409 1.0840 133.5 19.5  57d  26
2023 11 24 09  02 55 49.692   +65 51 55.29  .13384 1.0838 133.5 19.5  57d  26
2023 11 24 10  02 56 12.683   +65 50 40.56  .13359 1.0837 133.5 19.5  57d  26
2023 11 24 11  02 56 35.728   +65 49 25.20  .13335 1.0836 133.6 19.5  57d  26
2023 11 24 12  02 56 58.830   +65 48 09.22  .13310 1.0834 133.6 19.5  57d  27
2023 11 24 13  02 57 21.987   +65 46 52.60  .13286 1.0833 133.6 19.5  57d  27
2023 11 24 14  02 57 45.199   +65 45 35.36  .13261 1.0831 133.7 19.5  57d  27
2023 11 24 15  02 58 08.467   +65 44 17.47  .13237 1.0830 133.7 19.4  57d  27
2023 11 24 16  02 58 31.789   +65 42 58.94  .13212 1.0829 133.7 19.4  57d  27
2023 11 24 17  02 58 55.168   +65 41 39.76  .13188 1.0827 133.8 19.4  57d  27
2023 11 24 18  02 59 18.601   +65 40 19.93  .13163 1.0826 133.8 19.4  57d  27
2023 11 24 19  02 59 42.089   +65 38 59.44  .13139 1.0825 133.9 19.4  57d  27
2023 11 24 20  03 00 05.632   +65 37 38.30  .13114 1.0823 133.9 19.4  58d  27
2023 11 24 21  03 00 29.230   +65 36 16.49  .13090 1.0822 133.9 19.4  58d  27
2023 11 24 22  03 00 52.882   +65 34 54.01  .13065 1.0820 134.0 19.4  58d  27
2023 11 24 23  03 01 16.590   +65 33 30.86  .13041 1.0819 134.0 19.4  58d  27